Home > Weather > Inverness > Past weeks

Flag for United Kingdom Weather for the Past 2 Weeks in Inverness, Scotland, United Kingdom

Now
34 °F

Passing clouds.


Feels Like: 26 °F
Forecast: N/A
Wind: 10 mph from East

Location: Inverness / Dalcross

Current Time: Feb 12, 2016 at 9:52:51 PM

Latest Report: Feb 12, 2016 at 8:50 PM


Visibility: N/A

Pressure: 29.53 "Hg

Humidity: 93%

Dew point: 32 °F

Location of InvernessLocation

Historic Weather in Inverness — Graph

°F

Inverness Temperature Yesterday

Maximum temperature yesterday: 41 °F (at 1:20 PM)
Minimum temperature yesterday: 28 °F (at 7:50 PM)
Average temperature yesterday: 35 °F

High & Low Weather Summary for the Past Weeks

 TemperatureHumidityPressure
High50 °F (Jan 29, 2:20 AM)100% (Jan 29, 7:50 PM)30.07 "Hg (Jan 29, 7:50 PM)
Low28 °F (Feb 11, 7:50 PM)66% (Feb 1, 10:50 AM)28.47 "Hg (Feb 7, 1:20 PM)
Average38 °F89%29.28 "Hg
* Reported Jan 28 8:20 PM — Feb 12 8:20 PM, Inverness, Weather by CustomWeather, © 2016

Note: Actual official high and low records may vary slightly from our data, if they occured in-between our weather recording intervals... More about our weather records

Advertising

Inverness Weather History for the Previous 24 Hours

 ConditionsComfort  
Time TempWeatherWind HumidityBarometerVisibility
8:20 PM
Fri, Feb 12
34 °FPassing clouds.10 mph93%29.56 "HgN/A
7:50 PM34 °FPassing clouds.10 mph93%29.56 "HgN/A
7:20 PM34 °FPassing clouds.10 mph87%29.56 "HgN/A
6:50 PM34 °FPassing clouds.12 mph87%29.56 "HgN/A
6:20 PM34 °FPassing clouds.12 mph87%29.56 "HgN/A
5:50 PM36 °FPassing clouds.10 mph81%29.56 "HgN/A
5:20 PM36 °FPassing clouds.13 mph87%29.56 "HgN/A
4:50 PM36 °FScattered clouds.18 mph87%29.56 "HgN/A
4:20 PM37 °FScattered clouds.15 mph81%29.56 "HgN/A
3:50 PM37 °FPartly sunny.14 mph81%29.56 "HgN/A
3:20 PM39 °FPartly sunny.15 mph81%29.53 "HgN/A
2:50 PM39 °FPartly sunny.14 mph81%29.53 "HgN/A
2:20 PM39 °FPartly sunny.12 mph87%29.53 "HgN/A
1:50 PM39 °FSnow. Partly sunny.13 mph87%29.53 "HgN/A
1:20 PM39 °FPartly sunny.12 mph87%29.53 "HgN/A
12:50 PM37 °FPartly sunny.10 mph93%29.53 "HgN/A
12:20 PM37 °FBroken clouds.6 mph93%29.53 "Hg5 mi
11:50 AM36 °FScattered showers. Broken clouds.3 mph93%29.53 "Hg6 mi
11:20 AM36 °FSnow flurries. Partly sunny.5 mph93%29.53 "HgN/A
10:50 AM34 °FPartly sunny.5 mph93%29.53 "HgN/A
10:20 AM32 °FPartly sunny.2 mph100%29.53 "HgN/A
9:50 AM32 °FPartly sunny.2 mph100%29.53 "HgN/A
9:20 AM30 °FPartly sunny.No wind100%29.53 "HgN/A
8:50 AM28 °FScattered clouds.No wind100%29.53 "HgN/A
8:20 AM28 °FPassing clouds.No wind100%29.53 "HgN/A
7:50 AM30 °FPassing clouds.2 mph93%29.53 "HgN/A
7:20 AM28 °FPassing clouds.No wind100%29.50 "HgN/A
6:50 AM28 °FFog.5 mph100%29.50 "HgN/A
6:20 AM28 °FLight fog.5 mph100%29.50 "HgN/A
5:50 AM30 °FPassing clouds.No wind100%29.50 "HgN/A
5:20 AM32 °FPassing clouds.2 mph100%29.50 "HgN/A
4:50 AM32 °FPassing clouds.No wind100%29.50 "HgN/A
4:20 AM32 °FPassing clouds.No wind100%29.50 "HgN/A
3:50 AM32 °FPassing clouds.No wind100%29.50 "HgN/A
3:20 AM32 °FOvercast.2 mph100%29.50 "HgN/A
2:50 AM32 °FPassing clouds.3 mph100%29.53 "HgN/A
2:20 AM32 °FOvercast.6 mph100%29.53 "HgN/A
1:50 AM32 °FPassing clouds.6 mph100%29.53 "HgN/A
1:20 AM32 °FPassing clouds.6 mph100%29.53 "HgN/A
12:50 AM32 °FPassing clouds.7 mph100%29.53 "HgN/A
12:20 AM32 °FPassing clouds.7 mph100%29.53 "HgN/A
11:50 PM
Thu, Feb 11
32 °FOvercast.3 mph100%29.53 "Hg6 mi
11:20 PM32 °FPartly cloudy.5 mph100%29.53 "HgN/A
10:50 PM34 °FPassing clouds.2 mph93%29.56 "Hg3 mi
9:50 PM30 °FPassing clouds.3 mph93%29.56 "HgN/A
9:20 PM28 °FPassing clouds.5 mph93%29.56 "HgN/A
Weather by CustomWeather, © 2016

See weather overviewHow to use our weather pages